Location: Newark
(44.6028°N, 124.0883°W)
Time: 19:30:15
(UTC+00:00)

A-11 Canister half - Pass Details

Date: 22 October 2019
Orbit: 1514 x 1686 km, 47.2° (Epoch: 16 November)

Event Time Altitude Azimuth Distance (km) Brightness Sun altitude
Exits shadow 11:04:49 83° 67° (ENE) 1,627 8.9 -38.3°
Drops below altitude 10° 11:14:00 10° 73° (ENE) 3,771 11.8 -36.8°
Sets 11:17:01 0° 74° (ENE) 4,734 12.5 -36.3°
